{"data":{"norad_id":61847,"intl_designator":"2024-202C","name":"STARLINK-32352","alt_names":[],"object_type":"PAYLOAD","status":"ACTIVE","operator":null,"country":"US","launch_date":"2024-11-07","launch_site_code":"AFETR","launch_vehicle":null,"mission":null,"orbit_class":"UNKNOWN","rcs_meters":null,"size_class":null,"mass_kg":null,"dimensions":null,"purposes":["comms"],"wikipedia_slug":null,"has_3d_model":false,"image_url":null,"decayed_at":null,"tle_current":{"epoch":"2026-09-21T13:22:22.881792Z","epoch_age_seconds":97171,"freshness":"FRESH","line1":"1 61847U 24202C   26264.55720928  .00000055  00000+0  11521-4 0  9997","line2":"2 61847  43.0029 200.5357 0001324 265.7339  94.3361 15.27574574105428","mean_motion":15.27574574,"eccentricity":0.0001324,"inclination_deg":43.0029,"raan_deg":200.5357,"arg_perigee_deg":265.7339,"mean_anomaly_deg":94.3361,"bstar":1.1521e-5,"rev_number":10542,"period_min":94.267083552544,"perigee_km":482.15692029346,"apogee_km":483.97376667402,"semimajor_km":6861.2023434837,"source":"CELESTRAK","updated_at":"2026-09-22T09:00:49.439977Z"}}}